Flag for China Weather past 2 weeks in Lanchow, Gansu, China

Now
82 °F

Partly sunny.


Feels Like: 80 °F
Forecast: 60 / 87 °F
Wind: 17 mph from North

Location: Lanzhou / Zhongchuan

Current Time: Aug 1, 2014 at 8:27:12 PM

Latest Report: Aug 1, 2014 at 7:00 PM


Visibility: N/A

Pressure: 29.95 "Hg

Humidity: 23%

Dew point: 41 °F

Location of LanchowLocation

Historic Weather in Lanchow — Graph

°F

Lanchow temperature yesterday

Maximum temperature yesterday: 77 °F (at 10:00 AM)
Minimum temperature yesterday: 63 °F (at 11:00 PM)
Average temperature yesterday: 70 °F

Past Weeks' High & Low Weather Summary

 TemperatureHumidityPressure
High90 °F (Jul 29, 5:00 PM)100% (Jul 21, 10:00 PM)30.21 "Hg (Jul 21, 10:00 PM)
Low52 °F (Jul 24, 1:00 AM)23% (Aug 1, 7:00 PM)29.80 "Hg (Jul 18, 4:00 PM)
Average69 °F63%29.98 "Hg
* Reported Jul 17 7:00 PM — Aug 1 7:00 PM, Lanchow, Weather by CustomWeather, © 2014

Note: Actual official high and low records may vary slightly from our data, if they occured in-between our weather recording intervals... More about our weather records

Advertising

Lanchow weather history for previous 24 hours

 ConditionsComfort  
Time TempWeatherWind HumidityBarometerVisibility
7:00 PM
Aug 1
82 °FPartly sunny.17 mph23%29.95 "HgN/A
6:00 PM86 °FPassing clouds.10 mph29%29.92 "HgN/A
5:00 PM84 °FScattered clouds.15 mph31%29.95 "HgN/A
4:00 PM84 °FPassing clouds.3 mph40%29.95 "HgN/A
3:00 PM84 °FPassing clouds.8 mph37%29.95 "HgN/A
2:00 PM81 °FPassing clouds.6 mph42%29.98 "HgN/A
1:00 PM79 °FPassing clouds.3 mph54%29.98 "HgN/A
12:00 PM75 °FPassing clouds.6 mph57%30.01 "HgN/A
11:00 AM73 °FPassing clouds.6 mph65%30.01 "HgN/A
10:00 AM72 °FPassing clouds.8 mph65%30.01 "HgN/A
9:00 AM68 °FClear.8 mph73%30.01 "Hg4 mi
8:00 AM64 °FFog.1 mph83%29.98 "Hg1 mi
7:00 AM59 °FFog.1 mph88%29.98 "Hg3 mi
6:00 AM57 °FFog.No wind94%29.98 "Hg3 mi
5:00 AM57 °FClear.1 mph94%29.98 "Hg10 mi
4:00 AM57 °FClear.3 mph94%29.98 "Hg10 mi
3:00 AM59 °FClear.3 mph88%29.98 "Hg10 mi
2:00 AM59 °FClear.1 mph88%30.01 "Hg10 mi
1:00 AM59 °FClear.1 mph88%30.01 "Hg10 mi
12:00 AM61 °FClear.3 mph88%30.01 "Hg10 mi
11:00 PM
Jul 31
63 °FClear.1 mph83%30.01 "Hg4 mi
10:00 PM68 °FClear.1 mph73%30.04 "Hg10 mi
9:00 PM68 °FSunny.1 mph78%30.04 "Hg10 mi
8:00 PM72 °FPartly sunny.1 mph65%30.01 "HgN/A
Weather by CustomWeather, © 2014

See weather overviewHow to use our weather pages